Time,TemperatureF,DewpointF,PressureIn,WindDirection,WindDirectionDegrees,WindSpeedMPH,WindSpeedGustMPH,Humidity,HourlyPrecipIn,Conditions,Clouds,dailyrainin,SoftwareType,DateUTC
2013-11-04 00:05:00,37.1,33.0,30.37,ESE,109,6.0,-999.0,86,-99.99,,,0.00,weatherlink.com 1.10,2013-11-04 05:05:00,
2013-11-04 00:20:00,37.1,33.0,30.37,ESE,121,9.0,-999.0,86,-99.99,,,0.00,weatherlink.com 1.10,2013-11-04 05:20:00,
2013-11-04 00:35:00,37.0,33.0,30.37,ESE,111,8.0,-999.0,86,-99.99,,,0.00,weatherlink.com 1.10,2013-11-04 05:35:00,
2013-11-04 00:50:00,36.9,33.0,30.37,SE,126,8.0,-999.0,86,-99.99,,,0.00,weatherlink.com 1.10,2013-11-04 05:50:00,
2013-11-04 01:05:00,36.5,33.0,30.37,ESE,121,6.0,-999.0,87,-99.99,,,0.00,weatherlink.com 1.10,2013-11-04 06:05:00,
2013-11-04 01:20:00,36.5,33.0,30.38,SE,125,5.0,-999.0,87,-99.99,,,0.00,weatherlink.com 1.10,2013-11-04 06:20:00,
2013-11-04 01:35:00,36.5,33.0,30.38,ESE,122,8.0,-999.0,87,-99.99,,,0.00,weatherlink.com 1.10,2013-11-04 06:35:00,
2013-11-04 01:50:00,36.6,33.0,30.38,East,90,9.0,-999.0,87,-99.99,,,0.00,weatherlink.com 1.10,2013-11-04 06:50:00,
2013-11-04 02:05:00,36.5,33.0,30.38,ESE,118,8.0,-999.0,88,-99.99,,,0.00,weatherlink.com 1.10,2013-11-04 07:05:00,
2013-11-04 02:20:00,36.5,33.0,30.38,ESE,119,6.0,-999.0,88,-99.99,,,0.00,weatherlink.com 1.10,2013-11-04 07:20:00,
2013-11-04 02:35:00,36.5,33.0,30.39,ESE,120,5.0,-999.0,88,-99.99,,,0.00,weatherlink.com 1.10,2013-11-04 07:35:00,
2013-11-04 02:50:00,36.4,33.0,30.38,SE,140,9.0,-999.0,88,-99.99,,,0.00,weatherlink.com 1.10,2013-11-04 07:50:00,
2013-11-04 03:05:00,36.5,33.0,30.38,SE,132,5.0,-999.0,88,-99.99,,,0.00,weatherlink.com 1.10,2013-11-04 08:05:00,
2013-11-04 03:20:00,36.7,34.0,30.37,ESE,111,7.0,-999.0,88,-99.99,,,0.00,weatherlink.com 1.10,2013-11-04 08:20:00,
2013-11-04 03:35:00,36.7,34.0,30.37,ESE,121,5.0,-999.0,88,-99.99,,,0.00,weatherlink.com 1.10,2013-11-04 08:35:00,
2013-11-04 03:50:00,36.8,34.0,30.37,SSE,147,7.0,-999.0,88,-99.99,,,0.00,weatherlink.com 1.10,2013-11-04 08:50:00,
2013-11-04 04:05:00,36.8,34.0,30.37,SE,136,5.0,-999.0,88,-99.99,,,0.00,weatherlink.com 1.10,2013-11-04 09:05:00,
2013-11-04 04:20:00,37.0,34.0,30.36,ESE,121,7.0,-999.0,88,-99.99,,,0.00,weatherlink.com 1.10,2013-11-04 09:20:00,
2013-11-04 04:35:00,37.1,34.0,30.36,ESE,120,12.0,-999.0,88,-99.99,,,0.00,weatherlink.com 1.10,2013-11-04 09:35:00,
2013-11-04 04:50:00,37.3,34.0,30.37,SE,128,8.0,-999.0,88,-99.99,,,0.00,weatherlink.com 1.10,2013-11-04 09:50:00,
2013-11-04 05:05:00,37.2,34.0,30.37,SE,139,5.0,-999.0,87,-99.99,,,0.00,weatherlink.com 1.10,2013-11-04 10:05:00,
2013-11-04 05:20:00,37.1,34.0,30.37,ESE,121,7.0,-999.0,87,-99.99,,,0.00,weatherlink.com 1.10,2013-11-04 10:20:00,
2013-11-04 05:35:00,37.0,34.0,30.38,ESE,117,8.0,-999.0,87,-99.99,,,0.00,weatherlink.com 1.10,2013-11-04 10:35:00,
2013-11-04 05:50:00,37.2,34.0,30.38,ESE,115,7.0,-999.0,87,-99.99,,,0.00,weatherlink.com 1.10,2013-11-04 10:50:00,
2013-11-04 06:05:00,37.3,34.0,30.37,ESE,121,7.0,-999.0,87,-99.99,,,0.00,weatherlink.com 1.10,2013-11-04 11:05:00,
2013-11-04 06:20:00,37.3,34.0,30.37,ESE,121,5.0,-999.0,87,-99.99,,,0.00,weatherlink.com 1.10,2013-11-04 11:20:00,
2013-11-04 06:35:00,37.4,34.0,30.36,ESE,120,6.0,-999.0,86,-99.99,,,0.00,weatherlink.com 1.10,2013-11-04 11:35:00,
2013-11-04 06:50:00,37.4,34.0,30.36,SE,129,8.0,-999.0,86,-99.99,,,0.00,weatherlink.com 1.10,2013-11-04 11:50:00,
2013-11-04 07:05:00,37.6,34.0,30.36,ESE,120,5.0,-999.0,85,-99.99,,,0.00,weatherlink.com 1.10,2013-11-04 12:05:00,
2013-11-04 07:20:00,37.4,33.0,30.36,ESE,113,6.0,-999.0,85,-99.99,,,0.00,weatherlink.com 1.10,2013-11-04 12:20:00,
2013-11-04 07:35:00,37.4,33.0,30.36,ESE,123,5.0,-999.0,85,-99.99,,,0.00,weatherlink.com 1.10,2013-11-04 12:35:00,
2013-11-04 07:50:00,37.6,33.0,30.35,SE,124,8.0,-999.0,84,-99.99,,,0.00,weatherlink.com 1.10,2013-11-04 12:50:00,
2013-11-04 08:05:00,37.9,33.0,30.36,SE,144,7.0,-999.0,83,-99.99,,,0.00,weatherlink.com 1.10,2013-11-04 13:05:00,
2013-11-04 08:20:00,38.4,33.0,30.36,SSE,159,5.0,-999.0,82,-99.99,,,0.00,weatherlink.com 1.10,2013-11-04 13:20:00,
2013-11-04 08:35:00,38.5,33.0,30.35,SE,124,8.0,-999.0,81,-99.99,,,0.00,weatherlink.com 1.10,2013-11-04 13:35:00,
2013-11-04 08:50:00,38.6,33.0,30.36,SE,125,6.0,-999.0,80,-99.99,,,0.00,weatherlink.com 1.10,2013-11-04 13:50:00,
2013-11-04 09:05:00,39.0,33.0,30.36,ESE,120,12.0,-999.0,78,-99.99,,,0.00,weatherlink.com 1.10,2013-11-04 14:05:00,
2013-11-04 09:20:00,40.1,33.0,30.35,South,169,8.0,-999.0,77,-99.99,,,0.00,weatherlink.com 1.10,2013-11-04 14:20:00,
2013-11-04 09:35:00,40.9,33.0,30.36,South,172,8.0,-999.0,74,-99.99,,,0.00,weatherlink.com 1.10,2013-11-04 14:35:00,
2013-11-04 09:50:00,40.7,33.0,30.36,ESE,123,12.0,-999.0,74,-99.99,,,0.00,weatherlink.com 1.10,2013-11-04 14:50:00,
2013-11-04 10:05:00,40.6,33.0,30.35,SE,129,6.0,-999.0,73,-99.99,,,0.00,weatherlink.com 1.10,2013-11-04 15:05:00,
2013-11-04 10:20:00,40.9,33.0,30.34,ESE,111,5.0,-999.0,73,-99.99,,,0.00,weatherlink.com 1.10,2013-11-04 15:20:00,
2013-11-04 10:35:00,41.7,33.0,30.34,SE,128,6.0,-999.0,72,-99.99,,,0.00,weatherlink.com 1.10,2013-11-04 15:35:00,
2013-11-04 10:50:00,42.2,33.0,30.34,SE,127,11.0,-999.0,71,-99.99,,,0.00,weatherlink.com 1.10,2013-11-04 15:50:00,
2013-11-04 11:05:00,42.6,33.0,30.33,SE,132,11.0,-999.0,69,-99.99,,,0.00,weatherlink.com 1.10,2013-11-04 16:05:00,
2013-11-04 11:20:00,43.2,33.0,30.32,SSE,158,11.0,-999.0,68,-99.99,,,0.00,weatherlink.com 1.10,2013-11-04 16:20:00,
2013-11-04 11:35:00,44.3,34.0,30.31,ESE,115,5.0,-999.0,67,-99.99,,,0.00,weatherlink.com 1.10,2013-11-04 16:35:00,
2013-11-04 11:50:00,44.8,34.0,30.31,SE,127,6.0,-999.0,65,-99.99,,,0.00,weatherlink.com 1.10,2013-11-04 16:50:00,
2013-11-04 12:05:00,45.9,35.0,30.31,SE,126,8.0,-999.0,65,-99.99,,,0.00,weatherlink.com 1.10,2013-11-04 17:05:00,
2013-11-04 12:20:00,47.3,33.0,30.30,SSE,150,14.0,-999.0,59,-99.99,,,0.00,weatherlink.com 1.10,2013-11-04 17:20:00,
2013-11-04 12:35:00,47.9,34.0,30.29,SSE,159,10.0,-999.0,58,-99.99,,,0.00,weatherlink.com 1.10,2013-11-04 17:35:00,
2013-11-04 12:50:00,47.5,33.0,30.28,SE,128,12.0,-999.0,57,-99.99,,,0.00,weatherlink.com 1.10,2013-11-04 17:50:00,
2013-11-04 13:05:00,48.2,33.0,30.26,SE,128,9.0,-999.0,56,-99.99,,,0.00,weatherlink.com 1.10,2013-11-04 18:05:00,
2013-11-04 13:20:00,49.7,33.0,30.26,ESE,118,11.0,-999.0,54,-99.99,,,0.00,weatherlink.com 1.10,2013-11-04 18:20:00,
2013-11-04 13:35:00,50.7,34.0,30.24,SE,140,14.0,-999.0,53,-99.99,,,0.00,weatherlink.com 1.10,2013-11-04 18:35:00,
2013-11-04 13:50:00,50.4,35.0,30.24,SE,130,2.0,-999.0,56,-99.99,,,0.00,weatherlink.com 1.10,2013-11-04 18:50:00,
2013-11-04 14:05:00,51.0,34.0,30.24,SE,146,8.0,-999.0,53,-99.99,,,0.00,weatherlink.com 1.10,2013-11-04 19:05:00,
2013-11-04 14:20:00,50.9,35.0,30.23,South,169,14.0,-999.0,54,-99.99,,,0.00,weatherlink.com 1.10,2013-11-04 19:20:00,
2013-11-04 14:35:00,50.5,34.0,30.23,SSE,161,17.0,-999.0,54,-99.99,,,0.00,weatherlink.com 1.10,2013-11-04 19:35:00,
2013-11-04 14:50:00,50.0,34.0,30.24,ESE,115,12.0,-999.0,55,-99.99,,,0.00,weatherlink.com 1.10,2013-11-04 19:50:00,
2013-11-04 15:05:00,49.9,34.0,30.23,SSE,157,11.0,-999.0,54,-99.99,,,0.00,weatherlink.com 1.10,2013-11-04 20:05:00,
2013-11-04 15:20:00,49.8,33.0,30.23,SE,126,6.0,-999.0,53,-99.99,,,0.00,weatherlink.com 1.10,2013-11-04 20:20:00,
2013-11-04 15:36:00,50.7,33.0,30.23,South,175,10.0,-999.0,52,-99.99,,,0.00,weatherlink.com 1.10,2013-11-04 20:36:00,
2013-11-04 15:51:00,50.5,33.0,30.22,SSE,155,8.0,-999.0,52,-99.99,,,0.00,weatherlink.com 1.10,2013-11-04 20:51:00,
2013-11-04 16:06:00,51.1,35.0,30.22,SSE,159,6.0,-999.0,54,-99.99,,,0.00,weatherlink.com 1.10,2013-11-04 21:06:00,
2013-11-04 16:21:00,50.5,34.0,30.22,SSE,148,7.0,-999.0,54,-99.99,,,0.00,weatherlink.com 1.10,2013-11-04 21:21:00,
2013-11-04 16:36:00,49.5,33.0,30.21,SE,142,4.0,-999.0,54,-99.99,,,0.00,weatherlink.com 1.10,2013-11-04 21:36:00,
2013-11-04 16:51:00,49.1,33.0,30.20,SE,136,8.0,-999.0,54,-99.99,,,0.00,weatherlink.com 1.10,2013-11-04 21:51:00,
2013-11-04 17:06:00,49.1,32.0,30.20,SE,128,5.0,-999.0,52,-99.99,,,0.00,weatherlink.com 1.10,2013-11-04 22:06:00,
2013-11-04 17:21:00,48.8,32.0,30.20,SSE,152,7.0,-999.0,53,-99.99,,,0.00,weatherlink.com 1.10,2013-11-04 22:21:00,
2013-11-04 17:36:00,48.5,32.0,30.20,SE,136,6.0,-999.0,54,-99.99,,,0.00,weatherlink.com 1.10,2013-11-04 22:36:00,
2013-11-04 17:51:00,48.3,32.0,30.21,SE,139,7.0,-999.0,54,-99.99,,,0.00,weatherlink.com 1.10,2013-11-04 22:51:00,
2013-11-04 18:06:00,48.0,32.0,30.20,SE,126,12.0,-999.0,55,-99.99,,,0.00,weatherlink.com 1.10,2013-11-04 23:06:00,
2013-11-04 18:21:00,47.9,32.0,30.20,SE,138,7.0,-999.0,55,-99.99,,,0.00,weatherlink.com 1.10,2013-11-04 23:21:00,
2013-11-04 18:36:00,47.7,32.0,30.20,SSE,149,5.0,-999.0,56,-99.99,,,0.00,weatherlink.com 1.10,2013-11-04 23:36:00,
2013-11-04 18:51:00,47.5,33.0,30.21,SSE,150,6.0,-999.0,57,-99.99,,,0.00,weatherlink.com 1.10,2013-11-04 23:51:00,
2013-11-04 19:21:00,47.3,33.0,30.21,ESE,121,6.0,-999.0,59,-99.99,,,0.00,weatherlink.com 1.10,2013-11-05 00:21:00,
2013-11-04 19:36:00,47.2,34.0,30.21,SE,142,4.0,-999.0,60,-99.99,,,0.00,weatherlink.com 1.10,2013-11-05 00:36:00,
2013-11-04 19:51:00,47.0,34.0,30.21,SSE,150,7.0,-999.0,61,-99.99,,,0.00,weatherlink.com 1.10,2013-11-05 00:51:00,
2013-11-04 20:06:00,46.9,34.0,30.21,SE,140,1.0,-999.0,62,-99.99,,,0.00,weatherlink.com 1.10,2013-11-05 01:06:00,
2013-11-04 20:21:00,46.9,35.0,30.21,ESE,123,5.0,-999.0,63,-99.99,,,0.00,weatherlink.com 1.10,2013-11-05 01:21:00,
2013-11-04 20:36:00,46.8,35.0,30.21,SE,144,4.0,-999.0,64,-99.99,,,0.00,weatherlink.com 1.10,2013-11-05 01:36:00,
2013-11-04 20:51:00,46.8,35.0,30.21,SSE,148,5.0,-999.0,65,-99.99,,,0.00,weatherlink.com 1.10,2013-11-05 01:51:00,
2013-11-04 21:06:00,46.8,36.0,30.21,SSE,158,2.0,-999.0,66,-99.99,,,0.00,weatherlink.com 1.10,2013-11-05 02:06:00,
2013-11-04 21:21:00,47.2,37.0,30.20,SSE,163,5.0,-999.0,67,-99.99,,,0.00,weatherlink.com 1.10,2013-11-05 02:21:00,
2013-11-04 21:36:00,47.7,37.0,30.21,SSE,161,6.0,-999.0,67,-99.99,,,0.00,weatherlink.com 1.10,2013-11-05 02:36:00,
2013-11-04 21:51:00,48.0,38.0,30.21,South,180,9.0,-999.0,69,-99.99,,,0.00,weatherlink.com 1.10,2013-11-05 02:51:00,
2013-11-04 22:06:00,48.1,38.0,30.21,South,170,8.0,-999.0,69,-99.99,,,0.00,weatherlink.com 1.10,2013-11-05 03:06:00,
2013-11-04 22:21:00,47.9,39.0,30.21,SSW,202,8.0,-999.0,70,-99.99,,,0.00,weatherlink.com 1.10,2013-11-05 03:21:00,
2013-11-04 22:36:00,47.8,39.0,30.21,SSE,148,5.0,-999.0,71,-99.99,,,0.00,weatherlink.com 1.10,2013-11-05 03:36:00,
2013-11-04 22:51:00,47.5,39.0,30.20,SSE,157,0.0,-999.0,73,-99.99,,,0.00,weatherlink.com 1.10,2013-11-05 03:51:00,
2013-11-04 23:06:00,47.1,40.0,30.21,SSE,164,0.0,-999.0,75,-99.99,,,0.00,weatherlink.com 1.10,2013-11-05 04:06:00,
2013-11-04 23:21:00,47.5,40.0,30.20,SSE,157,0.0,-999.0,76,-99.99,,,0.00,weatherlink.com 1.10,2013-11-05 04:21:00,
2013-11-04 23:36:00,47.8,41.0,30.20,SSE,162,0.0,-999.0,76,-99.99,,,0.00,weatherlink.com 1.10,2013-11-05 04:36:00,
2013-11-04 23:51:00,47.9,41.0,30.20,SSE,164,4.0,-999.0,76,-99.99,,,0.00,weatherlink.com 1.10,2013-11-05 04:51:00,